![]() |
EMODnet Physics ERDDAP
Easier access to scientific data |
log in|
Brought to you by EMODnet Physics |
| Dataset Title: | NDBC - Collection of dew point temperature (DEWT) TimeSeries - IN SITU MultiPointTimeSeriesObservation
|
| Institution: | NDBC (Dataset ID: TS_DEWT_NDBC) |
| Information: | Summary
| License
| FGDC
| ISO 19115
| Metadata
| Background
| Subset
| Data Access Form
| Make a graph
|
| Name | Last modified | Size | Description | |
|---|---|---|---|---|
| Parent Directory | - | - | ||
| 42020_TS_DEWT_012000.nc | 17-Jan-2026 17:02 | 1831103 | ||
| 42020_TS_DEWT_012001.nc | 17-Jan-2026 17:05 | 1667560 | ||
| 42020_TS_DEWT_012002.nc | 17-Jan-2026 17:08 | 1676197 | ||
| 42020_TS_DEWT_012003.nc | 17-Jan-2026 17:11 | 1835775 | ||
| 42020_TS_DEWT_012004.nc | 17-Jan-2026 17:14 | 1832101 | ||
| 42020_TS_DEWT_012005.nc | 17-Jan-2026 17:17 | 1673522 | ||
| 42020_TS_DEWT_012006.nc | 17-Jan-2026 17:21 | 1271712 | ||
| 42020_TS_DEWT_012007.nc | 17-Jan-2026 17:24 | 5799756 | ||
| 42020_TS_DEWT_012008.nc | 17-Jan-2026 17:28 | 5169522 | ||
| 42020_TS_DEWT_012009.nc | 17-Jan-2026 17:33 | 1626452 | ||
| 42020_TS_DEWT_012010.nc | 17-Jan-2026 17:38 | 1476127 | ||
| 42020_TS_DEWT_012011.nc | 17-Jan-2026 17:42 | 1478134 | ||
| 42020_TS_DEWT_012012.nc | 17-Jan-2026 17:46 | 1627394 | ||
| 42020_TS_DEWT_012013.nc | 17-Jan-2026 17:51 | 428237 | ||
| 42020_TS_DEWT_012014.nc | 17-Jan-2026 17:56 | 1473809 | ||
| 42020_TS_DEWT_012015.nc | 17-Jan-2026 18:02 | 1469536 | ||
| 42020_TS_DEWT_012017.nc | 17-Jan-2026 18:11 | 1152324 | ||
| 42020_TS_DEWT_012019.nc | 17-Jan-2026 18:22 | 1465242 | ||
| 42020_TS_DEWT_012020.nc | 17-Jan-2026 18:32 | 419176 | ||
| 42020_TS_DEWT_012022.nc | 17-Jan-2026 18:40 | 1470613 | ||
| 42020_TS_DEWT_012023.nc | 17-Jan-2026 18:47 | 1149752 | ||
| 42020_TS_DEWT_012025.nc | 17-Jan-2026 18:57 | 1472447 | ||
| 42020_TS_DEWT_012026.nc | 02-Feb-2026 18:16 | 1478308 | ||
| 42020_TS_DEWT_022000.nc | 17-Jan-2026 17:03 | 1468835 | ||
| 42020_TS_DEWT_022001.nc | 17-Jan-2026 17:05 | 1458784 | ||
| 42020_TS_DEWT_022003.nc | 17-Jan-2026 17:11 | 1472087 | ||
| 42020_TS_DEWT_022004.nc | 17-Jan-2026 17:14 | 1472370 | ||
| 42020_TS_DEWT_022005.nc | 17-Jan-2026 17:18 | 1475132 | ||
| 42020_TS_DEWT_022006.nc | 17-Jan-2026 17:21 | 1461598 | ||
| 42020_TS_DEWT_022008.nc | 17-Jan-2026 17:29 | 1471299 | ||
| 42020_TS_DEWT_022009.nc | 17-Jan-2026 17:34 | 1475551 | ||
| 42020_TS_DEWT_022010.nc | 17-Jan-2026 17:38 | 1460293 | ||
| 42020_TS_DEWT_022011.nc | 17-Jan-2026 17:42 | 1460304 | ||
| 42020_TS_DEWT_022012.nc | 17-Jan-2026 17:46 | 1473330 | ||
| 42020_TS_DEWT_022013.nc | 17-Jan-2026 17:51 | 1472726 | ||
| 42020_TS_DEWT_022014.nc | 17-Jan-2026 17:58 | 1469463 | ||
| 42020_TS_DEWT_022015.nc | 17-Jan-2026 18:02 | 1461609 | ||
| 42020_TS_DEWT_022017.nc | 17-Jan-2026 18:11 | 1476709 | ||
| 42020_TS_DEWT_022019.nc | 17-Jan-2026 18:23 | 1472944 | ||
| 42020_TS_DEWT_022020.nc | 17-Jan-2026 18:32 | 1476514 | ||
| 42020_TS_DEWT_022022.nc | 17-Jan-2026 18:41 | 1465853 | ||
| 42020_TS_DEWT_022023.nc | 17-Jan-2026 18:47 | 1477262 | ||
| 42020_TS_DEWT_022025.nc | 17-Jan-2026 18:57 | 1471763 | ||
| 42020_TS_DEWT_022026.nc | 01-Mar-2026 08:00 | 1469653 | ||
| 42020_TS_DEWT_032001.nc | 17-Jan-2026 17:05 | 1460884 | ||
| 42020_TS_DEWT_032003.nc | 17-Jan-2026 17:12 | 1473798 | ||
| 42020_TS_DEWT_032004.nc | 17-Jan-2026 17:15 | 1156986 | ||
| 42020_TS_DEWT_032005.nc | 17-Jan-2026 17:18 | 1469917 | ||
| 42020_TS_DEWT_032006.nc | 17-Jan-2026 17:21 | 1157836 | ||
| 42020_TS_DEWT_032008.nc | 17-Jan-2026 17:29 | 1474603 | ||
| 42020_TS_DEWT_032009.nc | 17-Jan-2026 17:34 | 1147988 | ||
| 42020_TS_DEWT_032011.nc | 17-Jan-2026 17:43 | 1473186 | ||
| 42020_TS_DEWT_032012.nc | 17-Jan-2026 17:47 | 1473069 | ||
| 42020_TS_DEWT_032013.nc | 17-Jan-2026 17:52 | 1459481 | ||
| 42020_TS_DEWT_032014.nc | 17-Jan-2026 17:58 | 1477131 | ||
| 42020_TS_DEWT_032015.nc | 17-Jan-2026 18:02 | 428964 | ||
| 42020_TS_DEWT_032017.nc | 17-Jan-2026 18:11 | 1627023 | ||
| 42020_TS_DEWT_032018.nc | 17-Jan-2026 18:14 | 1627385 | ||
| 42020_TS_DEWT_032019.nc | 17-Jan-2026 18:24 | 1627769 | ||
| 42020_TS_DEWT_032020.nc | 17-Jan-2026 18:33 | 1625986 | ||
| 42020_TS_DEWT_032022.nc | 17-Jan-2026 18:41 | 425748 | ||
| 42020_TS_DEWT_032023.nc | 17-Jan-2026 18:48 | 419998 | ||
| 42020_TS_DEWT_032025.nc | 17-Jan-2026 18:58 | 429682 | ||
| 42020_TS_DEWT_032026.nc | 26-Mar-2026 10:51 | 429684 | ||
| 42020_TS_DEWT_042001.nc | 17-Jan-2026 17:05 | 429742 | ||
| 42020_TS_DEWT_042003.nc | 17-Jan-2026 17:12 | 426362 | ||
| 42020_TS_DEWT_042004.nc | 17-Jan-2026 17:15 | 429677 | ||
| 42020_TS_DEWT_042005.nc | 17-Jan-2026 17:18 | 429651 | ||
| 42020_TS_DEWT_042006.nc | 17-Jan-2026 17:21 | 429696 | ||
| 42020_TS_DEWT_042008.nc | 17-Jan-2026 17:30 | 429674 | ||
| 42020_TS_DEWT_042009.nc | 17-Jan-2026 17:34 | 429685 | ||
| 42020_TS_DEWT_042011.nc | 17-Jan-2026 17:43 | 429693 | ||
| 42020_TS_DEWT_042012.nc | 17-Jan-2026 17:47 | 429691 | ||
| 42020_TS_DEWT_042013.nc | 17-Jan-2026 17:52 | 429379 | ||
| 42020_TS_DEWT_042014.nc | 17-Jan-2026 17:58 | 429691 | ||
| 42020_TS_DEWT_042015.nc | 17-Jan-2026 18:03 | 450244 | ||
| 42020_TS_DEWT_042017.nc | 17-Jan-2026 18:12 | 451097 | ||
| 42020_TS_DEWT_042018.nc | 17-Jan-2026 18:15 | 450005 | ||
| 42020_TS_DEWT_042019.nc | 17-Jan-2026 18:26 | 450658 | ||
| 42020_TS_DEWT_042020.nc | 17-Jan-2026 18:34 | 449293 | ||
| 42020_TS_DEWT_042022.nc | 17-Jan-2026 18:42 | 450227 | ||
| 42020_TS_DEWT_042023.nc | 17-Jan-2026 18:48 | 450169 | ||
| 42020_TS_DEWT_042025.nc | 17-Jan-2026 18:59 | 451101 | ||
| 42020_TS_DEWT_052001.nc | 17-Jan-2026 17:06 | 451642 | ||
| 42020_TS_DEWT_052002.nc | 17-Jan-2026 17:09 | 450621 | ||
| 42020_TS_DEWT_052003.nc | 17-Jan-2026 17:12 | 451435 | ||
| 42020_TS_DEWT_052004.nc | 17-Jan-2026 17:15 | 451217 | ||
| 42020_TS_DEWT_052005.nc | 17-Jan-2026 17:18 | 450924 | ||
| 42020_TS_DEWT_052006.nc | 17-Jan-2026 17:22 | 449128 | ||
| 42020_TS_DEWT_052007.nc | 17-Jan-2026 17:25 | 451344 | ||
| 42020_TS_DEWT_052008.nc | 17-Jan-2026 17:30 | 450879 | ||
| 42020_TS_DEWT_052009.nc | 17-Jan-2026 17:35 | 429921 | ||
| 42020_TS_DEWT_052011.nc | 17-Jan-2026 17:43 | 429913 | ||
| 42020_TS_DEWT_052012.nc | 17-Jan-2026 17:48 | 449762 | ||
| 42020_TS_DEWT_052013.nc | 17-Jan-2026 17:52 | 450206 | ||
| 42020_TS_DEWT_052014.nc | 17-Jan-2026 17:59 | 450848 | ||
| 42020_TS_DEWT_052015.nc | 17-Jan-2026 18:03 | 450064 | ||
| 42020_TS_DEWT_052017.nc | 17-Jan-2026 18:12 | 437648 | ||
| 42020_TS_DEWT_052018.nc | 17-Jan-2026 18:17 | 450563 | ||
| 42020_TS_DEWT_052019.nc | 17-Jan-2026 18:27 | 450718 | ||
| 42020_TS_DEWT_052020.nc | 17-Jan-2026 18:34 | 432886 | ||
| 42020_TS_DEWT_052022.nc | 17-Jan-2026 18:42 | 3929736 | ||
| 42020_TS_DEWT_052023.nc | 17-Jan-2026 18:49 | 427637 | ||
| 42020_TS_DEWT_052024.nc | 17-Jan-2026 18:52 | 422940 | ||
| 42020_TS_DEWT_052025.nc | 17-Jan-2026 18:59 | 428663 | ||
| 42020_TS_DEWT_061999.nc | 17-Jan-2026 17:01 | 428690 | ||
| 42020_TS_DEWT_062001.nc | 17-Jan-2026 17:06 | 429041 | ||
| 42020_TS_DEWT_062002.nc | 17-Jan-2026 17:09 | 428643 | ||
| 42020_TS_DEWT_062003.nc | 17-Jan-2026 17:12 | 428622 | ||
| 42020_TS_DEWT_062004.nc | 17-Jan-2026 17:15 | 428695 | ||
| 42020_TS_DEWT_062005.nc | 17-Jan-2026 17:19 | 429030 | ||
| 42020_TS_DEWT_062006.nc | 17-Jan-2026 17:22 | 428640 | ||
| 42020_TS_DEWT_062007.nc | 17-Jan-2026 17:26 | 428532 | ||
| 42020_TS_DEWT_062008.nc | 17-Jan-2026 17:31 | 428695 | ||
| 42020_TS_DEWT_062009.nc | 17-Jan-2026 17:35 | 429040 | ||
| 42020_TS_DEWT_062011.nc | 17-Jan-2026 17:44 | 434868 | ||
| 42020_TS_DEWT_062012.nc | 17-Jan-2026 17:48 | 447545 | ||
| 42020_TS_DEWT_062013.nc | 17-Jan-2026 17:53 | 448003 | ||
| 42020_TS_DEWT_062015.nc | 17-Jan-2026 18:03 | 448860 | ||
| 42020_TS_DEWT_062016.nc | 17-Jan-2026 18:08 | 446706 | ||
| 42020_TS_DEWT_062017.nc | 17-Jan-2026 18:12 | 447144 | ||
| 42020_TS_DEWT_062018.nc | 17-Jan-2026 18:18 | 447208 | ||
| 42020_TS_DEWT_062019.nc | 17-Jan-2026 18:27 | 449512 | ||
| 42020_TS_DEWT_062020.nc | 17-Jan-2026 18:35 | 447421 | ||
| 42020_TS_DEWT_062022.nc | 17-Jan-2026 18:43 | 447441 | ||
| 42020_TS_DEWT_062023.nc | 17-Jan-2026 18:50 | 448504 | ||
| 42020_TS_DEWT_062024.nc | 17-Jan-2026 18:53 | 447904 | ||
| 42020_TS_DEWT_062025.nc | 17-Jan-2026 19:00 | 448145 | ||
| 42020_TS_DEWT_071999.nc | 17-Jan-2026 17:01 | 448267 | ||
| 42020_TS_DEWT_072000.nc | 17-Jan-2026 17:03 | 447435 | ||
| 42020_TS_DEWT_072001.nc | 17-Jan-2026 17:06 | 449103 | ||
| 42020_TS_DEWT_072002.nc | 17-Jan-2026 17:10 | 446769 | ||
| 42020_TS_DEWT_072003.nc | 17-Jan-2026 17:13 | 428881 | ||
| 42020_TS_DEWT_072004.nc | 17-Jan-2026 17:15 | 428885 | ||
| 42020_TS_DEWT_072005.nc | 17-Jan-2026 17:19 | 438617 | ||
| 42020_TS_DEWT_072006.nc | 17-Jan-2026 17:22 | 448137 | ||
| 42020_TS_DEWT_072007.nc | 17-Jan-2026 17:26 | 448038 | ||
| 42020_TS_DEWT_072008.nc | 17-Jan-2026 17:31 | 448143 | ||
| 42020_TS_DEWT_072009.nc | 17-Jan-2026 17:35 | 449504 | ||
| 42020_TS_DEWT_072011.nc | 17-Jan-2026 17:44 | 447406 | ||
| 42020_TS_DEWT_072012.nc | 17-Jan-2026 17:48 | 446291 | ||
| 42020_TS_DEWT_072013.nc | 17-Jan-2026 17:53 | 447725 | ||
| 42020_TS_DEWT_072014.nc | 17-Jan-2026 17:59 | 2649962 | ||
| 42020_TS_DEWT_072015.nc | 17-Jan-2026 18:04 | 429649 | ||
| 42020_TS_DEWT_072016.nc | 17-Jan-2026 18:08 | 428991 | ||
| 42020_TS_DEWT_072017.nc | 17-Jan-2026 18:13 | 429654 | ||
| 42020_TS_DEWT_072019.nc | 17-Jan-2026 18:28 | 429699 | ||
| 42020_TS_DEWT_072020.nc | 17-Jan-2026 18:35 | 429691 | ||
| 42020_TS_DEWT_072021.nc | 17-Jan-2026 18:36 | 429689 | ||
| 42020_TS_DEWT_072022.nc | 17-Jan-2026 18:44 | 429668 | ||
| 42020_TS_DEWT_072023.nc | 17-Jan-2026 18:50 | 429702 | ||
| 42020_TS_DEWT_072024.nc | 17-Jan-2026 18:54 | 429677 | ||
| 42020_TS_DEWT_072025.nc | 17-Jan-2026 19:00 | 429566 | ||
| 42020_TS_DEWT_081999.nc | 17-Jan-2026 17:01 | 429702 | ||
| 42020_TS_DEWT_082000.nc | 17-Jan-2026 17:03 | 429695 | ||
| 42020_TS_DEWT_082001.nc | 17-Jan-2026 17:06 | 429697 | ||
| 42020_TS_DEWT_082002.nc | 17-Jan-2026 17:10 | 451560 | ||
| 42020_TS_DEWT_082003.nc | 17-Jan-2026 17:13 | 449872 | ||
| 42020_TS_DEWT_082004.nc | 17-Jan-2026 17:16 | 450063 | ||
| 42020_TS_DEWT_082005.nc | 17-Jan-2026 17:19 | 449809 | ||
| 42020_TS_DEWT_082006.nc | 17-Jan-2026 17:22 | 450228 | ||
| 42020_TS_DEWT_082007.nc | 17-Jan-2026 17:27 | 450927 | ||
| 42020_TS_DEWT_082008.nc | 17-Jan-2026 17:32 | 450001 | ||
| 42020_TS_DEWT_082009.nc | 17-Jan-2026 17:36 | 450547 | ||
| 42020_TS_DEWT_082011.nc | 17-Jan-2026 17:44 | 451259 | ||
| 42020_TS_DEWT_082012.nc | 17-Jan-2026 17:49 | 450740 | ||
| 42020_TS_DEWT_082013.nc | 17-Jan-2026 17:54 | 451813 | ||
| 42020_TS_DEWT_082014.nc | 17-Jan-2026 18:00 | 450373 | ||
| 42020_TS_DEWT_082015.nc | 17-Jan-2026 18:04 | 450401 | ||
| 42020_TS_DEWT_082016.nc | 17-Jan-2026 18:09 | 450988 | ||
| 42020_TS_DEWT_082017.nc | 17-Jan-2026 18:13 | 451324 | ||
| 42020_TS_DEWT_082018.nc | 17-Jan-2026 18:18 | 450432 | ||
| 42020_TS_DEWT_082019.nc | 17-Jan-2026 18:28 | 451128 | ||
| 42020_TS_DEWT_082021.nc | 17-Jan-2026 18:37 | 430470 | ||
| 42020_TS_DEWT_082022.nc | 17-Jan-2026 18:44 | 429919 | ||
| 42020_TS_DEWT_082023.nc | 17-Jan-2026 18:51 | 450876 | ||
| 42020_TS_DEWT_082024.nc | 17-Jan-2026 18:54 | 450417 | ||
| 42020_TS_DEWT_082025.nc | 17-Jan-2026 19:01 | 450433 | ||
| 42020_TS_DEWT_091999.nc | 17-Jan-2026 17:01 | 450999 | ||
| 42020_TS_DEWT_092000.nc | 17-Jan-2026 17:03 | 450958 | ||
| 42020_TS_DEWT_092001.nc | 17-Jan-2026 17:07 | 443502 | ||
| 42020_TS_DEWT_092002.nc | 17-Jan-2026 17:10 | 450442 | ||
| 42020_TS_DEWT_092003.nc | 17-Jan-2026 17:13 | 450904 | ||
| 42020_TS_DEWT_092004.nc | 17-Jan-2026 17:16 | 3500080 | ||
| 42020_TS_DEWT_092005.nc | 17-Jan-2026 17:19 | 429357 | ||
| 42020_TS_DEWT_092006.nc | 17-Jan-2026 17:23 | 429352 | ||
| 42020_TS_DEWT_092007.nc | 17-Jan-2026 17:27 | 429352 | ||
| 42020_TS_DEWT_092008.nc | 17-Jan-2026 17:32 | 429364 | ||
| 42020_TS_DEWT_092009.nc | 17-Jan-2026 17:36 | 429372 | ||
| 42020_TS_DEWT_092011.nc | 17-Jan-2026 17:45 | 429368 | ||
| 42020_TS_DEWT_092012.nc | 17-Jan-2026 17:49 | 429321 | ||
| 42020_TS_DEWT_092013.nc | 17-Jan-2026 17:55 | 429368 | ||
| 42020_TS_DEWT_092014.nc | 17-Jan-2026 18:00 | 429371 | ||
| 42020_TS_DEWT_092015.nc | 17-Jan-2026 18:04 | 429362 | ||
| 42020_TS_DEWT_092016.nc | 17-Jan-2026 18:09 | 429370 | ||
| 42020_TS_DEWT_092017.nc | 17-Jan-2026 18:14 | 429376 | ||
| 42020_TS_DEWT_092018.nc | 17-Jan-2026 18:19 | 429364 | ||
| 42020_TS_DEWT_092019.nc | 17-Jan-2026 18:29 | 449852 | ||
| 42020_TS_DEWT_092020.nc | 17-Jan-2026 18:36 | 431979 | ||
| 42020_TS_DEWT_092021.nc | 17-Jan-2026 18:38 | 449582 | ||
| 42020_TS_DEWT_092022.nc | 17-Jan-2026 18:45 | 450540 | ||
| 42020_TS_DEWT_092023.nc | 17-Jan-2026 18:52 | 449449 | ||
| 42020_TS_DEWT_092024.nc | 17-Jan-2026 18:55 | 451028 | ||
| 42020_TS_DEWT_092025.nc | 17-Jan-2026 19:01 | 449358 | ||
| 42020_TS_DEWT_101999.nc | 17-Jan-2026 17:02 | 450012 | ||
| 42020_TS_DEWT_102000.nc | 17-Jan-2026 17:04 | 449456 | ||
| 42020_TS_DEWT_102001.nc | 17-Jan-2026 17:07 | 449623 | ||
| 42020_TS_DEWT_102002.nc | 17-Jan-2026 17:10 | 448598 | ||
| 42020_TS_DEWT_102003.nc | 17-Jan-2026 17:13 | 449882 | ||
| 42020_TS_DEWT_102004.nc | 17-Jan-2026 17:16 | 449852 | ||
| 42020_TS_DEWT_102005.nc | 17-Jan-2026 17:20 | 449455 | ||
| 42020_TS_DEWT_102006.nc | 17-Jan-2026 17:23 | 449703 | ||
| 42020_TS_DEWT_102007.nc | 17-Jan-2026 17:27 | 449160 | ||
| 42020_TS_DEWT_102008.nc | 17-Jan-2026 17:32 | 449183 | ||
| 42020_TS_DEWT_102009.nc | 17-Jan-2026 17:37 | 448640 | ||
| 42020_TS_DEWT_102010.nc | 17-Jan-2026 17:41 | 429568 | ||
| 42020_TS_DEWT_102011.nc | 17-Jan-2026 17:45 | 449346 | ||
| 42020_TS_DEWT_102012.nc | 17-Jan-2026 17:50 | 449445 | ||
| 42020_TS_DEWT_102013.nc | 17-Jan-2026 17:55 | 418875 | ||
| 42020_TS_DEWT_102014.nc | 17-Jan-2026 18:01 | 448981 | ||
| 42020_TS_DEWT_102015.nc | 17-Jan-2026 18:05 | 449681 | ||
| 42020_TS_DEWT_102016.nc | 17-Jan-2026 18:10 | 449992 | ||
| 42020_TS_DEWT_102017.nc | 17-Jan-2026 18:14 | 449640 | ||
| 42020_TS_DEWT_102018.nc | 17-Jan-2026 18:20 | 450218 | ||
| 42020_TS_DEWT_102019.nc | 17-Jan-2026 18:30 | 4033653 | ||
| 42020_TS_DEWT_102021.nc | 17-Jan-2026 18:39 | 429662 | ||
| 42020_TS_DEWT_102022.nc | 17-Jan-2026 18:45 | 429685 | ||
| 42020_TS_DEWT_102023.nc | 17-Jan-2026 18:52 | 429647 | ||
| 42020_TS_DEWT_102024.nc | 17-Jan-2026 18:55 | 429677 | ||
| 42020_TS_DEWT_102025.nc | 17-Jan-2026 19:02 | 429691 | ||
| 42020_TS_DEWT_111999.nc | 17-Jan-2026 17:02 | 429701 | ||
| 42020_TS_DEWT_112000.nc | 17-Jan-2026 17:04 | 429699 | ||
| 42020_TS_DEWT_112001.nc | 17-Jan-2026 17:07 | 429690 | ||
| 42020_TS_DEWT_112002.nc | 17-Jan-2026 17:11 | 429695 | ||
| 42020_TS_DEWT_112003.nc | 17-Jan-2026 17:14 | 429705 | ||
| 42020_TS_DEWT_112004.nc | 17-Jan-2026 17:16 | 429676 | ||
| 42020_TS_DEWT_112005.nc | 17-Jan-2026 17:20 | 429691 | ||
| 42020_TS_DEWT_112006.nc | 17-Jan-2026 17:23 | 429704 | ||
| 42020_TS_DEWT_112007.nc | 17-Jan-2026 17:28 | 451076 | ||
| 42020_TS_DEWT_112008.nc | 17-Jan-2026 17:33 | 449248 | ||
| 42020_TS_DEWT_112009.nc | 17-Jan-2026 17:37 | 449671 | ||
| 42020_TS_DEWT_112010.nc | 17-Jan-2026 17:41 | 449860 | ||
| 42020_TS_DEWT_112011.nc | 17-Jan-2026 17:45 | 449455 | ||
| 42020_TS_DEWT_112012.nc | 17-Jan-2026 17:50 | 450157 | ||
| 42020_TS_DEWT_112013.nc | 17-Jan-2026 17:55 | 450968 | ||
| 42020_TS_DEWT_112014.nc | 17-Jan-2026 18:01 | 449807 | ||
| 42020_TS_DEWT_112015.nc | 17-Jan-2026 18:05 | 449289 | ||
| 42020_TS_DEWT_112016.nc | 17-Jan-2026 18:10 | 451459 | ||
| 42020_TS_DEWT_112018.nc | 17-Jan-2026 18:21 | 450339 | ||
| 42020_TS_DEWT_112019.nc | 17-Jan-2026 18:30 | 450814 | ||
| 42020_TS_DEWT_112021.nc | 17-Jan-2026 18:39 | 451246 | ||
| 42020_TS_DEWT_112022.nc | 17-Jan-2026 18:46 | 450055 | ||
| 42020_TS_DEWT_112024.nc | 17-Jan-2026 18:56 | 450100 | ||
| 42020_TS_DEWT_112025.nc | 17-Jan-2026 19:02 | 450268 | ||
| 42020_TS_DEWT_121998.nc | 17-Jan-2026 16:59 | 449572 | ||
| 42020_TS_DEWT_121999.nc | 17-Jan-2026 17:02 | 450011 | ||
| 42020_TS_DEWT_122000.nc | 17-Jan-2026 17:04 | 429914 | ||
| 42020_TS_DEWT_122001.nc | 17-Jan-2026 17:07 | 450215 | ||
| 42020_TS_DEWT_122002.nc | 17-Jan-2026 17:11 | 450436 | ||
| 42020_TS_DEWT_122003.nc | 17-Jan-2026 17:14 | 449666 | ||
| 42020_TS_DEWT_122004.nc | 17-Jan-2026 17:17 | 451075 | ||
| 42020_TS_DEWT_122005.nc | 17-Jan-2026 17:20 | 450378 | ||
| 42020_TS_DEWT_122006.nc | 17-Jan-2026 17:24 | 449974 | ||
| 42020_TS_DEWT_122007.nc | 17-Jan-2026 17:28 | 449935 | ||
| 42020_TS_DEWT_122008.nc | 17-Jan-2026 17:33 | 448718 | ||
| 42020_TS_DEWT_122009.nc | 17-Jan-2026 17:37 | 4516262 | ||
| 42020_TS_DEWT_122010.nc | 17-Jan-2026 17:42 | 429347 | ||
| 42020_TS_DEWT_122011.nc | 17-Jan-2026 17:46 | 429351 | ||
| 42020_TS_DEWT_122012.nc | 17-Jan-2026 17:50 | 429355 | ||
| 42020_TS_DEWT_122013.nc | 17-Jan-2026 17:56 | 429353 | ||
| 42020_TS_DEWT_122014.nc | 17-Jan-2026 18:01 | 429369 | ||
| 42020_TS_DEWT_122015.nc | 17-Jan-2026 18:06 | 429359 | ||
| 42020_TS_DEWT_122016.nc | 17-Jan-2026 18:10 | 429323 | ||
| 42020_TS_DEWT_122018.nc | 17-Jan-2026 18:21 | 429371 | ||
| 42020_TS_DEWT_122019.nc | 17-Jan-2026 18:31 | 429362 | ||
| 42020_TS_DEWT_122021.nc | 17-Jan-2026 18:40 | 429366 | ||
| 42020_TS_DEWT_122022.nc | 17-Jan-2026 18:47 | 429375 | ||
| 42020_TS_DEWT_122024.nc | 17-Jan-2026 18:56 | 429371 | ||
| 42020_TS_DEWT_122025.nc | 17-Jan-2026 19:03 | 429370 | ||